sat.trackr.live / text

‹ back to catalog

ASTRA 1N

NORAD 37775 · 2011-041A

PAYLOAD ACTIVE UNKNOWN

§ Identity

Operator
Country
SES
Launch date
2011-08-06
Launch site
FRGUI
Launch vehicle
Mass (kg)
RCS (m²)
7.94

Purposes: comms

External: N2YO · Heavens-Above · Gunter

§ Orbital elements

Epoch: 2026-05-25T03:50:01.744224Z

Period
1,436.09 min
Inclination
0.0887°
Eccentricity
0.0005910
Mean motion
1.00272563 rev/d
Perigee alt
35,761.5 km
Apogee alt
35,811.3 km
Semi-major
42,164.5 km
B*
0.0000e+0
RAAN
42.6530°
Arg perigee
35.3267°
Mean anomaly
241.4745°
Rev number
4,429

§ Raw data

ASTRA 1N1 37775U 11041A   26145.15974241  .00000118  00000+0  00000+0 0  99952 37775   0.0887  42.6530 0005910  35.3267 241.4745  1.00272563 44297

JSON: /api/v1/satellites/37775 · /tle

For live sub-satellite position, see the globe view (requires WebGL).

§ Visibility from observer

Set your observer location to see the next 7 days of passes ≥ 10°. The values pass through the URL so the page stays shareable.

No JS? Fill the form by hand. The geolocation button needs JavaScript.